Regional Weather Roundup
Issued by NWS

Home | Current Version | Previous Version | Text Only | Print | Product List | Glossary Off
Versions: 1 2 3 4 5 6 7 8 9 10 11 12 13 14 15 16 17 18 19 20 21 22 23 24 25 26 27 28 29 30 31 32 33 34 35 36 37 38 39 40 41 42 43 44 45 46 47 48 49 50

000
ASUS43 KDMX 280507
RWRIA

WEATHER ROUNDUP FOR IOWA
NATIONAL WEATHER SERVICE DES MOINES IA
1100 PM CST FRI FEB 27 2015

NOTE: "FAIR" INDICATES FEW OR NO CLOUDS BELOW 12,000 FEET WITH NO
SIGNIFICANT WEATHER AND/OR OBSTRUCTIONS TO VISIBILITY.

* - THESE STATIONS ARE NOT NWS STATIONS...THUS NOT UNDER NWS
QUALITY CONTROL.  THEY ALSO DO NOT REPORT WEATHER SUCH
AS PRECIPITATION OR FOG.

IAZ001>003-012>014-020>022-031>034-043>046-280600-
   NORTHWEST IOWA

CITY           SKY/WX    TMP DP  RH WIND       PRES   REMARKS
CARROLL *      PTCLDY    -2  -8  78 CALM      30.54S
CHEROKEE *     CLEAR     -4  -8  84 S7        30.51F WCI -18
DENISON *      CLEAR      1  -4  78 SE5       30.50F WCI  -8
LE MARS *      CLEAR      3  -2  78 SE8       30.49F WCI -10
ORANGE CITY *  CLEAR      3  -2  78 SE6       30.46F WCI  -8
SHELDON *      CLEAR      1  -6  71 S10       30.46F WCI -14
SIOUX CITY     CLEAR      4  -2  76 SE8       30.50F WCI  -9
SPENCER        CLEAR     -5 -11  75 S8        30.50F WCI -20
STORM LAKE *   PTCLDY     0  -6  78 S9        30.50S WCI -16
$$

IAZ055>058-069>071-079>083-090>094-280600-
   SOUTHWEST IOWA

CITY           SKY/WX    TMP DP  RH WIND       PRES   REMARKS
ATLANTIC *     CLEAR      1  -4  78 NE5       30.54S WCI  -8
AUDUBON *      CLEAR     -6 -11  77 CALM      30.53S
CLARINDA *     PTCLDY    10   3  72 CALM      30.57F
COUNCIL BLFS * CLEAR      9   3  78 E7        30.50F WCI  -3
CRESTON *      CLEAR      3  -2  78 SE5       30.54F WCI  -6
HARLAN  *      CLEAR      7   0  72 SE5       30.56F WCI  -2
LAMONI         CLEAR      6  -1  73 E6        30.56S WCI  -4
RED OAK *      CLEAR      9   1  72 SE3       30.54F
SHENANDOAH *   PTCLDY     9   0  66 CALM      30.55F
$$

IAZ047>049-059>061-072>074-084-280600-
   CENTRAL IOWA

CITY           SKY/WX    TMP DP  RH WIND       PRES   REMARKS
AMES           PTCLDY    -3  -8  79 CALM      30.59F
ANKENY *       CLEAR      1  -4  78 CALM      30.61S
CHARITON *     CLEAR      3  -4  72 SE6       30.58F WCI  -8
DES MOINES     CLEAR      6  -3  66 SE8       30.59F WCI  -7
GRINNELL*      MOCLDY    -2  -8  78 SE3       30.60F
KNOXVILLE *    CLEAR      1  -6  71 E5        30.59F WCI  -8
MARSHALLTOWN   MOCLDY    -8 -11  86 SE7       30.59S WCI -23
PELLA *        PTCLDY     0  -4  86 SE5       30.63S WCI -10
PERRY *          N/A      3  -2  78 SE7       30.57S WCI  -9
$$

IAZ004>006-015-016-023>025-035-036-280600-
   NORTH CENTRAL IOWA

CITY           SKY/WX    TMP DP  RH WIND       PRES   REMARKS
ALGONA *       CLEAR     -2  -6  84 S9        30.53F WCI -18
CLARION *      CLEAR     -6 -11  77 SE10      30.56S WCI -23
ESTHERVILLE    PTCLDY    -5  -9  83 S9        30.50F WCI -22
FORT DODGE *   PTCLDY    -6 -11  77 SE3       30.55F
MASON CITY     PTCLDY    -9 -13  83 S5        30.56F WCI -20
FOREST CITY *  CLEAR     -9 -17  70 CALM      30.54F
IOWA FALLS *     N/A     -8 -13  77 SE6       30.58S WCI -21
$$

IAZ007>011-017>019-026>030-037>042-050>054-066-280600-
   NORTHEAST IOWA

CITY           SKY/WX    TMP DP  RH WIND       PRES   REMARKS
CEDAR RAPIDS   MOCLDY    -7 -11  83 SE3       30.62S
CHARLES CITY * CLEAR     -6 -11  77 S9        30.58S WCI -22
CLINTON *      MOCLDY    -4  -6  92 CALM      30.68S
DECORAH *      CLEAR     -4  -9  77 S3        30.56F
DUBUQUE        MOCLDY   -10 -15  78 S5        30.61S WCI -22
MONTICELLO *   CLEAR    -17 -24  70 CALM      30.64S
OELWEIN *      CLEAR     -8 -13  77 S7        30.60F WCI -22
WATERLOO       MOCLDY   -21 -25  81 SE3       30.61S
$$

IAZ064-065-067-068-078-280600-
   EAST CENTRAL IOWA

CITY           SKY/WX    TMP DP  RH WIND       PRES   REMARKS
DAVENPORT      MOCLDY    -3 -11  68 CALM      30.66S
IOWA CITY      MOCLDY    -7 -10  87 CALM      30.67F
MT. PLEASANT * MOCLDY    -2  -8  78 E5        30.65F WCI -12
MUSCATINE *    CLEAR    -11 -15  84 CALM      30.69S
QUAD CITIES    MOCLDY   -13 -18  78 CALM      30.67F
$$

IAZ062-063-075>077-085>089-095>099-280600-
   SOUTHEAST IOWA

CITY           SKY/WX    TMP DP  RH WIND       PRES   REMARKS
BURLINGTON     MOCLDY    -1  -6  79 CALM      30.65F
FAIRFIELD *    CLEAR     -6 -13  71 E6        30.64F WCI -18
FORT MADISON * CLEAR      0  -6  78 E3        30.65F
KEOKUK *       MOCLDY     5  -4  66 E3        30.65S
OSKALOOSA *      N/A     -4  -8  84 E7        30.62F WCI -18
CENTERVILLE *  CLEAR      5   0  78 E6        30.60F WCI  -6
OTTUMWA        PTCLDY     1  -6  72 E6        30.61F WCI -10
WASHINGTON *   CLEAR     -8  -8 100 SE3       30.65F
$$

ABBREVIATIONS USED IN REMARKS
   TC - TEMPERATURES IN CELSIUS
  WCI - WIND CHILL INDEX
   HX - HEAT INDEX
  VSB - VISIBILITY
$$




USA.gov is the U.S. government's official web portal to all federal, state and local government web resources and services.